Precipitable_Water
0.53 0.52 0.52 0.52 0.51 0.51 0.50 0.50 0.48 0.47 0.47 0.46 0.46 0.46 0.46 0.47 0.45 0.45 0.45 0.45 0.44 0.43 0.44 0.41 0.42 0.43 0.44 0.45 0.47 0.47 0.46 0.39 0.34 0.31 0.28 0.38 0.43 0.48 0.48 0.48 0.44 0.41 0.36 0.32 0.29 0.26 0.24 0.24 0.23 0.22 0.23 0.25 0.21 0.26 0.23 0.25 0.21 0.19 0.16 0.14 0.11 0.15 0.12 0.19 0.16 0.17 0.24 0.21 0.21 0.22 0.24 0.24 0.24 0.28 0.30 0.32 0.30 0.30 0.31 0.31 0.34 0.36 0.36 0.39 0.40 0.43 0.45 0.46
0.51 0.51 0.51 0.50 0.49 0.49 0.49 0.49 0.49 0.48 0.47 0.48 0.48 0.47 0.47 0.47 0.47 0.45 0.46 0.46 0.45 0.44 0.44 0.46 0.45 0.46 0.48 0.49 0.49 0.50 0.46 0.40 0.31 0.31 0.29 0.44 0.47 0.50 0.48 0.45 0.42 0.38 0.36 0.30 0.28 0.25 0.23 0.22 0.21 0.23 0.22 0.21 0.23 0.19 0.26 0.21 0.25 0.21 0.14 0.12 0.15 0.15 0.19 0.20 0.22 0.21 0.22 0.22 0.23 0.25 0.26 0.26 0.27 0.28 0.31 0.26 0.28 0.29 0.29 0.32 0.33 0.33 0.37 0.40 0.41 0.43 0.44 0.45
0.51 0.53 0.51 0.51 0.50 0.49 0.49 0.49 0.49 0.49 0.50 0.48 0.49 0.49 0.47 0.46 0.47 0.47 0.46 0.47 0.47 0.47 0.48 0.49 0.51 0.52 0.49 0.52 0.53 0.52 0.45 0.37 0.30 0.28 0.33 0.47 0.50 0.51 0.46 0.42 0.39 0.40 0.35 0.32 0.29 0.28 0.26 0.25 0.24 0.21 0.19 0.19 0.19 0.21 0.23 0.21 0.23 0.19 0.19 0.17 0.17 0.18 0.18 0.21 0.22 0.22 0.24 0.25 0.24 0.25 0.27 0.27 0.29 0.29 0.33 0.27 0.27 0.30 0.27 0.30 0.31 0.32 0.34 0.37 0.40 0.42 0.44 0.45
0.55 0.52 0.52 0.53 0.51 0.51 0.50 0.50 0.50 0.51 0.50 0.50 0.48 0.49 0.49 0.49 0.49 0.50 0.50 0.50 0.51 0.50 0.52 0.52 0.54 0.53 0.54 0.53 0.55 0.54 0.46 0.30 0.26 0.30 0.40 0.46 0.47 0.49 0.43 0.41 0.40 0.39 0.39 0.34 0.33 0.31 0.29 0.26 0.24 0.22 0.18 0.19 0.20 0.20 0.22 0.24 0.26 0.24 0.21 0.20 0.20 0.19 0.19 0.21 0.24 0.25 0.26 0.27 0.27 0.27 0.29 0.27 0.30 0.31 0.30 0.28 0.26 0.27 0.30 0.34 0.32 0.32 0.36 0.38 0.40 0.42 0.44 0.44
0.56 0.55 0.54 0.52 0.53 0.51 0.52 0.51 0.51 0.51 0.51 0.50 0.50 0.50 0.50 0.51 0.51 0.52 0.53 0.53 0.53 0.53 0.54 0.54 0.54 0.54 0.54 0.55 0.52 0.53 0.35 0.20 0.29 0.34 0.44 0.45 0.50 0.46 0.43 0.41 0.39 0.40 0.37 0.35 0.35 0.33 0.32 0.28 0.24 0.21 0.21 0.19 0.20 0.21 0.22 0.25 0.27 0.25 0.23 0.24 0.23 0.22 0.23 0.26 0.28 0.29 0.29 0.30 0.28 0.28 0.25 0.26 0.32 0.30 0.29 0.29 0.26 0.27 0.32 0.35 0.37 0.38 0.39 0.39 0.40 0.42 0.44 0.44
0.55 0.55 0.54 0.52 0.51 0.51 0.51 0.51 0.51 0.51 0.50 0.51 0.53 0.53 0.54 0.54 0.54 0.55 0.55 0.56 0.55 0.55 0.54 0.55 0.56 0.54 0.54 0.54 0.52 0.46 0.30 0.16 0.30 0.36 0.51 0.46 0.48 0.44 0.41 0.41 0.40 0.40 0.38 0.35 0.35 0.35 0.32 0.28 0.24 0.22 0.20 0.19 0.21 0.20 0.25 0.26 0.29 0.24 0.26 0.27 0.27 0.28 0.27 0.30 0.29 0.30 0.30 0.29 0.28 0.26 0.29 0.30 0.28 0.28 0.31 0.31 0.29 0.33 0.37 0.39 0.39 0.40 0.41 0.42 0.43 0.43 0.42 0.43
0.57 0.56 0.54 0.53 0.50 0.50 0.50 0.49 0.51 0.52 0.52 0.53 0.55 0.56 0.56 0.58 0.57 0.57 0.57 0.57 0.56 0.57 0.56 0.57 0.57 0.57 0.53 0.51 0.51 0.38 0.28 0.27 0.32 0.43 0.58 0.53 0.51 0.43 0.41 0.41 0.42 0.41 0.40 0.36 0.36 0.36 0.35 0.30 0.25 0.23 0.21 0.21 0.22 0.22 0.25 0.26 0.31 0.26 0.23 0.28 0.28 0.30 0.27 0.31 0.30 0.32 0.31 0.30 0.29 0.31 0.33 0.29 0.29 0.26 0.32 0.31 0.35 0.37 0.39 0.41 0.41 0.42 0.43 0.43 0.42 0.44 0.44 0.44
0.60 0.58 0.55 0.52 0.50 0.49 0.49 0.49 0.51 0.52 0.53 0.55 0.56 0.58 0.58 0.59 0.59 0.58 0.58 0.59 0.58 0.57 0.60 0.58 0.58 0.57 0.54 0.49 0.38 0.38 0.30 0.30 0.45 0.52 0.56 0.54 0.54 0.49 0.46 0.45 0.43 0.43 0.43 0.39 0.39 0.36 0.36 0.31 0.26 0.27 0.24 0.22 0.26 0.25 0.29 0.27 0.29 0.27 0.26 0.29 0.31 0.31 0.31 0.32 0.32 0.32 0.32 0.32 0.33 0.33 0.30 0.30 0.31 0.30 0.32 0.31 0.36 0.38 0.40 0.42 0.42 0.42 0.42 0.42 0.43 0.44 0.45 0.46
0.61 0.60 0.57 0.55 0.52 0.50 0.50 0.50 0.51 0.53 0.54 0.55 0.57 0.58 0.59 0.60 0.59 0.60 0.59 0.59 0.59 0.59 0.59 0.60 0.60 0.57 0.57 0.45 0.37 0.26 0.26 0.48 0.56 0.61 0.61 0.56 0.54 0.52 0.51 0.46 0.48 0.45 0.43 0.43 0.43 0.42 0.39 0.33 0.32 0.29 0.24 0.25 0.29 0.26 0.29 0.27 0.26 0.31 0.31 0.32 0.33 0.32 0.34 0.35 0.34 0.34 0.34 0.34 0.34 0.31 0.30 0.32 0.33 0.35 0.32 0.34 0.37 0.40 0.42 0.42 0.42 0.42 0.41 0.41 0.42 0.45 0.45 0.46
0.60 0.60 0.58 0.57 0.55 0.53 0.52 0.51 0.52 0.54 0.55 0.56 0.57 0.58 0.60 0.60 0.59 0.60 0.60 0.61 0.60 0.61 0.60 0.62 0.61 0.59 0.48 0.41 0.37 0.23 0.43 0.60 0.60 0.62 0.62 0.56 0.55 0.53 0.50 0.52 0.48 0.46 0.42 0.43 0.45 0.43 0.38 0.37 0.34 0.35 0.33 0.29 0.31 0.30 0.33 0.31 0.30 0.36 0.35 0.35 0.35 0.36 0.36 0.38 0.35 0.36 0.36 0.35 0.36 0.32 0.31 0.32 0.35 0.33 0.28 0.36 0.39 0.41 0.41 0.41 0.42 0.40 0.40 0.41 0.43 0.45 0.46 0.46
0.60 0.60 0.61 0.60 0.58 0.55 0.53 0.53 0.54 0.56 0.57 0.57 0.58 0.59 0.60 0.60 0.61 0.60 0.61 0.60 0.61 0.60 0.61 0.61 0.65 0.54 0.46 0.41 0.30 0.25 0.65 0.64 0.63 0.63 0.62 0.59 0.54 0.51 0.50 0.51 0.51 0.47 0.46 0.47 0.43 0.44 0.43 0.40 0.39 0.37 0.33 0.30 0.33 0.32 0.33 0.34 0.38 0.37 0.37 0.37 0.37 0.37 0.38 0.38 0.38 0.37 0.37 0.35 0.37 0.36 0.33 0.34 0.35 0.34 0.31 0.35 0.40 0.41 0.39 0.39 0.39 0.39 0.39 0.40 0.43 0.45 0.47 0.47
0.60 0.61 0.61 0.60 0.59 0.57 0.56 0.55 0.54 0.56 0.57 0.59 0.59 0.60 0.60 0.60 0.61 0.61 0.61 0.62 0.60 0.62 0.62 0.61 0.60 0.55 0.46 0.37 0.31 0.34 0.59 0.63 0.67 0.61 0.59 0.58 0.54 0.54 0.54 0.53 0.52 0.52 0.48 0.42 0.44 0.46 0.44 0.43 0.40 0.36 0.29 0.37 0.29 0.35 0.34 0.39 0.38 0.37 0.38 0.32 0.36 0.38 0.35 0.38 0.36 0.37 0.39 0.35 0.39 0.38 0.34 0.31 0.32 0.30 0.35 0.38 0.40 0.41 0.39 0.38 0.38 0.38 0.39 0.41 0.44 0.46 0.46 0.47
0.62 0.63 0.63 0.62 0.59 0.57 0.56 0.56 0.56 0.57 0.58 0.59 0.61 0.61 0.60 0.61 0.62 0.63 0.62 0.61 0.63 0.62 0.63 0.63 0.61 0.58 0.45 0.31 0.38 0.51 0.59 0.67 0.64 0.60 0.58 0.58 0.56 0.57 0.56 0.56 0.55 0.53 0.51 0.47 0.45 0.46 0.46 0.45 0.42 0.35 0.38 0.35 0.35 0.30 0.38 0.41 0.39 0.40 0.38 0.35 0.32 0.33 0.32 0.35 0.38 0.37 0.36 0.36 0.38 0.37 0.24 0.27 0.31 0.34 0.37 0.40 0.40 0.40 0.38 0.37 0.37 0.38 0.40 0.42 0.44 0.46 0.47 0.48
0.65 0.64 0.65 0.63 0.60 0.58 0.58 0.58 0.58 0.58 0.59 0.59 0.62 0.62 0.61 0.62 0.64 0.64 0.63 0.61 0.64 0.63 0.62 0.65 0.63 0.53 0.42 0.33 0.44 0.56 0.63 0.65 0.63 0.57 0.55 0.58 0.54 0.53 0.55 0.55 0.55 0.53 0.54 0.49 0.49 0.49 0.46 0.46 0.44 0.41 0.42 0.37 0.34 0.44 0.38 0.38 0.40 0.33 0.36 0.36 0.30 0.28 0.28 0.35 0.36 0.36 0.32 0.37 0.37 0.37 0.25 0.28 0.32 0.35 0.38 0.39 0.39 0.38 0.36 0.37 0.38 0.39 0.40 0.42 0.44 0.45 0.46 0.47
0.68 0.65 0.66 0.64 0.62 0.59 0.58 0.58 0.58 0.59 0.61 0.61 0.61 0.61 0.63 0.63 0.64 0.64 0.64 0.62 0.65 0.66 0.64 0.65 0.62 0.49 0.36 0.38 0.53 0.66 0.67 0.65 0.53 0.55 0.60 0.55 0.51 0.48 0.49 0.52 0.51 0.52 0.52 0.52 0.49 0.50 0.49 0.48 0.45 0.40 0.36 0.43 0.43 0.38 0.35 0.35 0.36 0.36 0.30 0.27 0.33 0.29 0.30 0.34 0.37 0.36 0.31 0.35 0.38 0.35 0.26 0.28 0.32 0.34 0.38 0.40 0.39 0.39 0.37 0.38 0.38 0.39 0.40 0.41 0.42 0.43 0.44 0.46
0.67 0.69 0.68 0.66 0.63 0.60 0.58 0.58 0.58 0.61 0.62 0.62 0.63 0.62 0.65 0.66 0.63 0.64 0.65 0.63 0.65 0.65 0.66 0.52 0.52 0.47 0.37 0.31 0.45 0.73 0.60 0.45 0.47 0.59 0.62 0.60 0.58 0.49 0.52 0.51 0.52 0.52 0.52 0.51 0.54 0.52 0.51 0.49 0.41 0.41 0.39 0.41 0.37 0.34 0.33 0.33 0.33 0.35 0.30 0.27 0.27 0.31 0.31 0.31 0.34 0.37 0.37 0.35 0.37 0.34 0.28 0.32 0.33 0.38 0.40 0.41 0.40 0.39 0.38 0.38 0.38 0.39 0.40 0.41 0.41 0.42 0.43 0.45
0.69 0.67 0.67 0.69 0.67 0.62 0.60 0.59 0.59 0.61 0.63 0.64 0.64 0.64 0.67 0.65 0.63 0.63 0.64 0.64 0.62 0.64 0.59 0.47 0.48 0.51 0.29 0.48 0.61 0.44 0.40 0.51 0.63 0.60 0.59 0.61 0.57 0.54 0.51 0.48 0.46 0.47 0.51 0.51 0.51 0.50 0.48 0.43 0.44 0.42 0.42 0.36 0.37 0.36 0.30 0.28 0.28 0.31 0.34 0.29 0.30 0.27 0.29 0.27 0.34 0.38 0.38 0.36 0.33 0.37 0.33 0.34 0.37 0.40 0.42 0.43 0.43 0.42 0.41 0.41 0.42 0.43 0.43 0.43 0.44 0.44 0.45 0.46
0.70 0.69 0.68 0.70 0.68 0.65 0.61 0.60 0.62 0.62 0.65 0.64 0.64 0.67 0.63 0.65 0.66 0.62 0.60 0.61 0.64 0.59 0.58 0.59 0.52 0.45 0.35 0.46 0.32 0.35 0.49 0.50 0.56 0.59 0.59 0.60 0.59 0.53 0.50 0.45 0.47 0.47 0.47 0.44 0.48 0.42 0.45 0.39 0.41 0.33 0.35 0.35 0.35 0.33 0.27 0.22 0.28 0.31 0.34 0.30 0.28 0.30 0.30 0.29 0.29 0.34 0.36 0.37 0.35 0.35 0.34 0.35 0.39 0.40 0.43 0.44 0.46 0.44 0.43 0.43 0.44 0.44 0.44 0.45 0.45 0.45 0.45 0.46
0.71 0.70 0.69 0.68 0.69 0.66 0.63 0.62 0.63 0.65 0.66 0.68 0.70 0.72 0.68 0.67 0.65 0.63 0.53 0.53 0.43 0.35 0.27 0.31 0.34 0.22 0.19 0.39 0.49 0.50 0.52 0.56 0.61 0.59 0.53 0.56 0.57 0.56 0.53 0.52 0.48 0.43 0.38 0.37 0.38 0.40 0.42 0.40 0.39 0.33 0.28 0.31 0.31 0.32 0.31 0.31 0.33 0.31 0.31 0.29 0.29 0.28 0.29 0.31 0.34 0.38 0.37 0.34 0.34 0.35 0.33 0.36 0.40 0.42 0.42 0.46 0.47 0.45 0.45 0.45 0.46 0.46 0.45 0.45 0.45 0.45 0.46 0.47
0.73 0.72 0.71 0.70 0.69 0.67 0.65 0.63 0.64 0.65 0.69 0.65 0.65 0.61 0.56 0.39 0.40 0.35 0.45 0.46 0.35 0.29 0.34 0.41 0.41 0.40 0.41 0.42 0.43 0.53 0.62 0.62 0.48 0.55 0.56 0.57 0.53 0.51 0.49 0.49 0.46 0.45 0.39 0.33 0.37 0.39 0.43 0.32 0.28 0.27 0.30 0.34 0.36 0.36 0.36 0.37 0.37 0.35 0.34 0.32 0.30 0.30 0.31 0.35 0.36 0.39 0.40 0.37 0.34 0.36 0.37 0.37 0.40 0.43 0.44 0.44 0.47 0.46 0.45 0.45 0.46 0.46 0.45 0.46 0.46 0.47 0.48 0.48
0.72 0.72 0.72 0.74 0.73 0.70 0.68 0.66 0.66 0.68 0.68 0.69 0.62 0.47 0.30 0.29 0.25 0.21 0.37 0.34 0.34 0.35 0.33 0.38 0.41 0.39 0.39 0.45 0.48 0.47 0.41 0.45 0.50 0.51 0.54 0.63 0.56 0.48 0.42 0.44 0.39 0.34 0.36 0.39 0.38 0.41 0.41 0.31 0.29 0.32 0.36 0.38 0.39 0.40 0.39 0.38 0.37 0.35 0.33 0.32 0.31 0.32 0.30 0.36 0.36 0.39 0.42 0.37 0.34 0.38 0.37 0.37 0.40 0.44 0.46 0.46 0.45 0.44 0.45 0.46 0.45 0.46 0.47 0.48 0.48 0.48 0.48 0.49
0.73 0.72 0.73 0.77 0.76 0.73 0.71 0.68 0.68 0.70 0.72 0.70 0.59 0.42 0.43 0.48 0.53 0.55 0.44 0.28 0.42 0.42 0.40 0.40 0.44 0.40 0.47 0.47 0.50 0.52 0.49 0.41 0.43 0.50 0.59 0.57 0.50 0.40 0.41 0.39 0.36 0.32 0.38 0.39 0.39 0.35 0.32 0.28 0.32 0.38 0.42 0.41 0.41 0.40 0.40 0.37 0.36 0.36 0.33 0.33 0.32 0.32 0.36 0.39 0.38 0.40 0.41 0.39 0.35 0.38 0.35 0.36 0.39 0.42 0.46 0.46 0.46 0.47 0.48 0.48 0.48 0.47 0.47 0.48 0.48 0.48 0.48 0.49
0.77 0.74 0.73 0.77 0.76 0.77 0.76 0.73 0.72 0.72 0.68 0.58 0.48 0.45 0.45 0.60 0.64 0.64 0.53 0.40 0.31 0.41 0.42 0.43 0.39 0.39 0.42 0.49 0.52 0.55 0.41 0.37 0.35 0.45 0.50 0.55 0.47 0.44 0.42 0.36 0.35 0.36 0.38 0.38 0.32 0.31 0.28 0.32 0.36 0.42 0.41 0.40 0.40 0.40 0.39 0.38 0.38 0.35 0.35 0.32 0.30 0.35 0.33 0.30 0.38 0.41 0.41 0.40 0.37 0.39 0.37 0.38 0.42 0.45 0.46 0.49 0.48 0.48 0.51 0.51 0.51 0.49 0.48 0.48 0.48 0.48 0.48 0.47
0.81 0.79 0.76 0.76 0.77 0.79 0.79 0.78 0.79 0.71 0.63 0.58 0.52 0.51 0.63 0.65 0.65 0.62 0.47 0.32 0.29 0.41 0.41 0.42 0.41 0.41 0.42 0.40 0.51 0.48 0.41 0.41 0.42 0.41 0.57 0.51 0.42 0.47 0.43 0.38 0.36 0.37 0.34 0.36 0.34 0.32 0.31 0.36 0.42 0.42 0.42 0.40 0.37 0.38 0.37 0.36 0.34 0.37 0.37 0.35 0.34 0.35 0.38 0.37 0.38 0.41 0.42 0.44 0.44 0.42 0.39 0.37 0.41 0.41 0.44 0.48 0.51 0.49 0.50 0.50 0.49 0.50 0.50 0.51 0.51 0.51 0.49 0.47
0.91 0.83 0.80 0.78 0.79 0.84 0.80 0.83 0.69 0.62 0.67 0.64 0.55 0.65 0.74 0.75 0.71 0.69 0.43 0.34 0.33 0.32 0.51 0.45 0.49 0.46 0.49 0.61 0.57 0.45 0.46 0.47 0.46 0.52 0.55 0.53 0.47 0.44 0.41 0.46 0.41 0.34 0.35 0.36 0.36 0.34 0.34 0.41 0.43 0.40 0.39 0.39 0.38 0.36 0.37 0.38 0.34 0.36 0.39 0.39 0.39 0.40 0.39 0.40 0.41 0.39 0.37 0.37 0.42 0.41 0.31 0.30 0.39 0.42 0.43 0.45 0.46 0.45 0.47 0.45 0.45 0.46 0.48 0.50 0.49 0.49 0.50 0.50
1.05 0.94 0.85 0.82 0.83 0.86 0.89 0.68 0.63 0.69 0.61 0.51 0.56 0.68 0.76 0.80 0.83 0.69 0.46 0.30 0.22 0.34 0.45 0.29 0.47 0.37 0.58 0.46 0.52 0.50 0.51 0.38 0.52 0.54 0.57 0.57 0.59 0.48 0.44 0.39 0.40 0.32 0.36 0.36 0.35 0.36 0.37 0.41 0.42 0.39 0.38 0.39 0.39 0.37 0.39 0.41 0.36 0.35 0.37 0.43 0.42 0.42 0.42 0.41 0.40 0.40 0.34 0.31 0.39 0.45 0.32 0.27 0.39 0.38 0.40 0.42 0.42 0.42 0.44 0.44 0.44 0.44 0.45 0.47 0.48 0.49 0.49 0.49
1.18 1.09 0.97 0.89 0.91 0.92 0.72 0.54 0.72 0.70 0.51 0.51 0.66 0.76 0.77 0.77 0.89 0.72 0.33 0.26 0.21 0.35 0.29 0.46 0.40 0.46 0.55 0.51 0.51 0.52 0.30 0.34 0.56 0.58 0.55 0.60 0.49 0.56 0.38 0.36 0.39 0.41 0.42 0.42 0.37 0.31 0.39 0.38 0.40 0.41 0.39 0.38 0.37 0.35 0.41 0.42 0.38 0.35 0.46 0.46 0.44 0.42 0.41 0.42 0.43 0.41 0.39 0.47 0.47 0.46 0.42 0.33 0.30 0.37 0.46 0.43 0.42 0.42 0.43 0.44 0.45 0.45 0.44 0.45 0.47 0.49 0.49 0.49
1.29 1.24 1.11 1.00 0.97 0.95 0.76 0.81 0.74 0.59 0.53 0.66 0.72 0.78 0.82 0.79 0.81 0.70 0.32 0.19 0.17 0.43 0.34 0.43 0.45 0.61 0.53 0.53 0.56 0.42 0.42 0.50 0.37 0.46 0.55 0.57 0.54 0.47 0.42 0.37 0.36 0.36 0.40 0.40 0.26 0.39 0.39 0.37 0.39 0.38 0.39 0.38 0.36 0.41 0.45 0.46 0.41 0.43 0.49 0.49 0.45 0.45 0.45 0.45 0.44 0.42 0.43 0.41 0.34 0.40 0.44 0.35 0.29 0.36 0.45 0.44 0.40 0.41 0.41 0.42 0.44 0.45 0.44 0.44 0.45 0.47 0.48 0.49
1.32 1.30 1.24 1.15 1.12 1.09 1.04 0.93 0.84 0.67 0.72 0.79 0.81 0.78 0.81 0.85 0.70 0.43 0.33 0.19 0.41 0.38 0.70 0.42 0.69 0.54 0.51 0.55 0.48 0.48 0.45 0.48 0.35 0.45 0.55 0.57 0.58 0.49 0.39 0.41 0.44 0.42 0.42 0.41 0.33 0.41 0.44 0.44 0.43 0.43 0.40 0.37 0.43 0.47 0.48 0.48 0.42 0.48 0.50 0.50 0.49 0.49 0.48 0.47 0.45 0.43 0.43 0.38 0.29 0.37 0.41 0.33 0.28 0.37 0.39 0.42 0.40 0.38 0.40 0.42 0.44 0.45 0.45 0.44 0.45 0.46 0.47 0.48
1.33 1.31 1.27 1.21 1.16 1.08 1.05 1.08 0.96 0.99 0.86 0.88 0.86 0.83 0.82 0.73 0.53 0.29 0.27 0.18 0.37 0.29 0.45 0.50 0.46 0.41 0.50 0.41 0.43 0.46 0.41 0.44 0.48 0.50 0.52 0.49 0.52 0.56 0.51 0.56 0.48 0.43 0.39 0.43 0.41 0.43 0.46 0.51 0.53 0.47 0.43 0.47 0.48 0.50 0.52 0.51 0.51 0.54 0.51 0.47 0.47 0.47 0.46 0.47 0.47 0.44 0.40 0.30 0.30 0.39 0.42 0.39 0.28 0.33 0.39 0.37 0.37 0.41 0.42 0.42 0.44 0.45 0.45 0.45 0.46 0.47 0.47 0.48
1.32 1.31 1.29 1.24 1.06 1.06 1.04 0.87 0.95 1.05 0.97 0.94 0.91 0.85 0.74 0.57 0.36 0.25 0.20 0.22 0.39 0.42 0.48 0.45 0.40 0.51 0.42 0.38 0.35 0.45 0.46 0.46 0.47 0.49 0.45 0.50 0.47 0.52 0.50 0.47 0.53 0.45 0.44 0.43 0.42 0.46 0.48 0.50 0.50 0.51 0.55 0.54 0.54 0.49 0.54 0.55 0.54 0.52 0.47 0.45 0.44 0.41 0.44 0.43 0.41 0.42 0.32 0.26 0.35 0.41 0.41 0.41 0.28 0.30 0.38 0.43 0.44 0.44 0.42 0.41 0.41 0.42 0.43 0.44 0.45 0.47 0.48 0.48
1.35 1.32 1.31 1.23 1.19 1.22 0.96 0.86 1.04 1.06 0.97 0.96 0.88 0.71 0.57 0.35 0.42 0.26 0.20 0.33 0.21 0.30 0.36 0.37 0.46 0.44 0.42 0.44 0.41 0.40 0.39 0.44 0.48 0.48 0.44 0.44 0.42 0.41 0.42 0.37 0.41 0.34 0.34 0.37 0.36 0.47 0.44 0.47 0.54 0.55 0.60 0.56 0.52 0.49 0.49 0.52 0.51 0.49 0.46 0.44 0.36 0.33 0.33 0.28 0.33 0.27 0.28 0.26 0.33 0.39 0.41 0.36 0.30 0.35 0.40 0.40 0.42 0.44 0.44 0.43 0.43 0.43 0.43 0.45 0.46 0.47 0.48 0.49
1.36 1.32 1.29 1.23 1.21 1.15 1.14 1.17 1.16 1.05 1.00 0.97 0.82 0.70 0.44 0.33 0.25 0.29 0.27 0.29 0.24 0.42 0.40 0.47 0.41 0.44 0.43 0.42 0.41 0.44 0.49 0.39 0.49 0.49 0.51 0.51 0.47 0.46 0.50 0.49 0.50 0.45 0.34 0.42 0.42 0.42 0.43 0.52 0.52 0.54 0.56 0.57 0.55 0.44 0.42 0.42 0.46 0.45 0.42 0.40 0.36 0.30 0.29 0.25 0.28 0.31 0.30 0.33 0.38 0.37 0.42 0.32 0.34 0.37 0.43 0.43 0.45 0.46 0.46 0.46 0.46 0.45 0.45 0.45 0.47 0.48 0.48 0.48
1.37 1.34 1.23 1.23 1.20 1.20 1.22 1.25 1.17 1.09 0.94 0.91 0.73 0.58 0.46 0.32 0.26 0.32 0.30 0.33 0.36 0.49 0.48 0.46 0.48 0.51 0.49 0.39 0.42 0.46 0.39 0.49 0.47 0.47 0.50 0.46 0.47 0.42 0.48 0.52 0.54 0.50 0.49 0.47 0.39 0.41 0.34 0.35 0.44 0.49 0.43 0.55 0.53 0.50 0.49 0.47 0.47 0.46 0.51 0.47 0.40 0.38 0.32 0.27 0.28 0.25 0.27 0.29 0.32 0.39 0.33 0.27 0.28 0.31 0.43 0.44 0.46 0.48 0.47 0.47 0.47 0.46 0.46 0.47 0.47 0.48 0.48 0.47
1.38 1.33 1.27 1.25 1.25 1.27 1.26 1.26 1.22 1.14 0.93 0.81 0.66 0.48 0.34 0.30 0.31 0.29 0.31 0.32 0.42 0.43 0.42 0.52 0.46 0.45 0.45 0.48 0.49 0.51 0.49 0.42 0.50 0.47 0.47 0.45 0.41 0.45 0.44 0.46 0.54 0.55 0.53 0.42 0.45 0.45 0.39 0.39 0.48 0.56 0.55 0.56 0.50 0.56 0.58 0.53 0.49 0.51 0.52 0.54 0.44 0.39 0.48 0.33 0.34 0.33 0.31 0.30 0.29 0.30 0.30 0.33 0.33 0.42 0.45 0.45 0.46 0.47 0.48 0.47 0.47 0.45 0.45 0.46 0.46 0.45 0.45 0.45
1.29 1.25 1.29 1.18 1.15 1.22 1.31 1.28 1.21 1.17 0.94 0.72 0.54 0.44 0.35 0.33 0.29 0.35 0.36 0.45 0.44 0.39 0.42 0.47 0.47 0.41 0.42 0.45 0.49 0.48 0.57 0.47 0.49 0.49 0.47 0.48 0.49 0.47 0.52 0.53 0.52 0.55 0.50 0.42 0.47 0.39 0.42 0.37 0.50 0.54 0.56 0.54 0.54 0.57 0.56 0.58 0.38 0.45 0.49 0.40 0.44 0.53 0.48 0.41 0.39 0.39 0.38 0.35 0.27 0.34 0.31 0.34 0.41 0.41 0.42 0.43 0.43 0.44 0.46 0.46 0.45 0.44 0.45 0.45 0.44 0.44 0.45 0.44
1.17 1.21 1.07 1.12 1.14 1.26 1.34 1.31 1.22 1.10 0.96 0.71 0.51 0.40 0.41 0.39 0.43 0.46 0.45 0.44 0.45 0.46 0.42 0.33 0.38 0.37 0.37 0.38 0.42 0.46 0.49 0.54 0.50 0.48 0.42 0.52 0.47 0.50 0.51 0.54 0.59 0.57 0.58 0.54 0.48 0.53 0.40 0.41 0.51 0.50 0.47 0.55 0.59 0.59 0.59 0.58 0.57 0.49 0.40 0.45 0.54 0.57 0.53 0.43 0.32 0.35 0.32 0.27 0.26 0.32 0.28 0.30 0.31 0.27 0.40 0.41 0.40 0.42 0.43 0.43 0.44 0.44 0.45 0.43 0.43 0.44 0.44 0.45
1.14 1.12 1.07 1.04 1.14 1.27 1.34 1.32 1.21 1.05 0.86 0.69 0.50 0.45 0.50 0.42 0.47 0.46 0.57 0.51 0.52 0.47 0.39 0.36 0.38 0.43 0.37 0.38 0.39 0.43 0.49 0.45 0.44 0.47 0.43 0.49 0.41 0.55 0.52 0.53 0.60 0.58 0.60 0.64 0.52 0.52 0.53 0.39 0.44 0.51 0.51 0.53 0.58 0.57 0.53 0.57 0.60 0.51 0.47 0.57 0.44 0.36 0.35 0.42 0.39 0.26 0.27 0.25 0.25 0.29 0.31 0.30 0.31 0.31 0.37 0.37 0.38 0.39 0.41 0.43 0.43 0.42 0.43 0.43 0.44 0.45 0.46 0.46
1.10 1.05 0.87 1.00 1.20 1.30 1.30 1.30 1.15 0.96 0.77 0.59 0.53 0.44 0.46 0.47 0.49 0.53 0.52 0.56 0.51 0.47 0.40 0.41 0.36 0.46 0.43 0.41 0.43 0.46 0.48 0.40 0.47 0.45 0.41 0.46 0.40 0.51 0.51 0.56 0.54 0.61 0.62 0.63 0.55 0.54 0.55 0.40 0.41 0.51 0.50 0.52 0.53 0.50 0.37 0.44 0.55 0.57 0.57 0.51 0.56 0.47 0.40 0.37 0.37 0.37 0.35 0.26 0.27 0.24 0.30 0.24 0.33 0.35 0.38 0.38 0.40 0.41 0.41 0.42 0.42 0.43 0.44 0.44 0.45 0.45 0.45 0.46
0.92 0.85 0.80 1.05 1.23 1.30 1.29 1.22 0.99 0.85 0.69 0.53 0.52 0.45 0.46 0.47 0.53 0.58 0.60 0.55 0.50 0.46 0.43 0.41 0.46 0.39 0.47 0.44 0.48 0.42 0.49 0.49 0.47 0.46 0.46 0.48 0.45 0.55 0.52 0.61 0.55 0.58 0.62 0.63 0.57 0.60 0.50 0.53 0.36 0.44 0.54 0.50 0.39 0.45 0.40 0.43 0.41 0.45 0.46 0.44 0.47 0.46 0.50 0.46 0.43 0.38 0.33 0.29 0.28 0.26 0.24 0.27 0.35 0.41 0.40 0.40 0.41 0.42 0.43 0.43 0.44 0.44 0.45 0.46 0.46 0.46 0.47 0.47
1.03 0.84 0.80 1.13 1.22 1.29 1.25 1.03 0.80 0.66 0.61 0.63 0.58 0.51 0.52 0.51 0.54 0.59 0.62 0.60 0.56 0.59 0.49 0.48 0.46 0.44 0.45 0.45 0.48 0.52 0.48 0.50 0.51 0.48 0.48 0.49 0.48 0.42 0.55 0.57 0.60 0.56 0.62 0.60 0.58 0.57 0.50 0.48 0.40 0.42 0.42 0.40 0.41 0.50 0.50 0.50 0.48 0.45 0.45 0.42 0.45 0.43 0.39 0.35 0.30 0.42 0.38 0.34 0.28 0.28 0.24 0.31 0.39 0.43 0.43 0.43 0.44 0.45 0.46 0.46 0.45 0.46 0.47 0.47 0.47 0.48 0.48 0.48
0.88 0.68 0.75 1.12 1.22 1.24 1.01 0.72 0.70 0.75 0.66 0.58 0.53 0.53 0.52 0.63 0.61 0.59 0.60 0.61 0.58 0.56 0.62 0.54 0.54 0.50 0.49 0.48 0.48 0.51 0.50 0.49 0.51 0.50 0.51 0.46 0.52 0.52 0.56 0.64 0.62 0.62 0.56 0.51 0.52 0.59 0.57 0.52 0.47 0.40 0.40 0.42 0.47 0.52 0.55 0.55 0.54 0.51 0.49 0.45 0.49 0.48 0.45 0.38 0.29 0.32 0.38 0.37 0.39 0.35 0.30 0.27 0.42 0.45 0.45 0.45 0.46 0.47 0.48 0.48 0.47 0.47 0.47 0.48 0.49 0.49 0.50 0.50
0.84 0.76 1.05 1.18 1.23 1.11 0.89 0.68 0.71 0.67 0.63 0.63 0.68 0.70 0.72 0.62 0.59 0.62 0.57 0.60 0.53 0.57 0.57 0.54 0.51 0.51 0.55 0.55 0.53 0.53 0.53 0.49 0.51 0.49 0.51 0.53 0.54 0.57 0.64 0.64 0.65 0.62 0.60 0.57 0.60 0.61 0.62 0.50 0.44 0.44 0.48 0.51 0.53 0.55 0.55 0.55 0.54 0.49 0.49 0.51 0.49 0.43 0.45 0.42 0.40 0.41 0.36 0.36 0.33 0.33 0.29 0.30 0.41 0.47 0.47 0.47 0.47 0.48 0.48 0.49 0.48 0.48 0.49 0.49 0.49 0.49 0.49 0.51
0.84 0.84 0.92 1.17 1.22 1.08 0.78 0.56 0.55 0.60 0.63 0.66 0.67 0.65 0.73 0.68 0.64 0.60 0.58 0.58 0.55 0.55 0.53 0.53 0.55 0.59 0.54 0.61 0.58 0.51 0.55 0.46 0.54 0.52 0.51 0.56 0.54 0.65 0.66 0.65 0.65 0.60 0.58 0.56 0.51 0.59 0.47 0.49 0.46 0.40 0.39 0.41 0.44 0.48 0.48 0.52 0.51 0.45 0.44 0.47 0.50 0.51 0.49 0.48 0.48 0.46 0.36 0.34 0.35 0.32 0.24 0.28 0.40 0.45 0.46 0.46 0.46 0.46 0.47 0.48 0.50 0.48 0.49 0.49 0.50 0.50 0.51 0.51
0.86 0.91 0.91 1.00 1.13 0.99 0.68 0.70 0.62 0.59 0.59 0.59 0.61 0.58 0.61 0.65 0.70 0.67 0.63 0.62 0.67 0.62 0.58 0.54 0.56 0.57 0.56 0.62 0.57 0.57 0.58 0.52 0.47 0.57 0.56 0.56 0.56 0.65 0.66 0.65 0.66 0.61 0.63 0.66 0.62 0.64 0.52 0.48 0.46 0.37 0.31 0.28 0.26 0.26 0.29 0.35 0.40 0.45 0.47 0.47 0.49 0.48 0.47 0.45 0.38 0.39 0.33 0.32 0.38 0.32 0.28 0.36 0.41 0.43 0.42 0.44 0.44 0.45 0.47 0.48 0.49 0.50 0.49 0.49 0.50 0.51 0.51 0.51
0.74 0.58 0.76 0.83 0.93 0.91 0.83 0.82 0.73 0.65 0.60 0.60 0.57 0.60 0.63 0.59 0.66 0.72 0.71 0.65 0.69 0.67 0.64 0.61 0.63 0.64 0.59 0.57 0.53 0.52 0.52 0.57 0.53 0.52 0.55 0.53 0.58 0.62 0.66 0.67 0.65 0.63 0.64 0.65 0.64 0.63 0.53 0.53 0.51 0.46 0.40 0.35 0.36 0.40 0.46 0.47 0.45 0.40 0.42 0.46 0.46 0.50 0.50 0.48 0.45 0.39 0.32 0.35 0.36 0.34 0.35 0.37 0.38 0.40 0.41 0.43 0.44 0.43 0.45 0.47 0.47 0.48 0.49 0.50 0.51 0.51 0.51 0.51
0.76 0.62 0.63 0.59 0.77 0.78 0.72 0.78 0.71 0.69 0.61 0.64 0.54 0.56 0.55 0.57 0.60 0.67 0.77 0.62 0.70 0.67 0.65 0.65 0.64 0.59 0.58 0.57 0.53 0.52 0.56 0.56 0.61 0.58 0.56 0.55 0.60 0.62 0.68 0.66 0.66 0.66 0.66 0.63 0.66 0.62 0.51 0.48 0.49 0.49 0.48 0.47 0.49 0.48 0.51 0.49 0.44 0.45 0.45 0.44 0.48 0.48 0.48 0.46 0.40 0.33 0.40 0.39 0.29 0.33 0.40 0.37 0.38 0.42 0.43 0.43 0.44 0.45 0.47 0.47 0.47 0.48 0.48 0.50 0.51 0.52 0.52 0.51
0.59 0.66 0.70 0.75 0.63 0.56 0.61 0.64 0.72 0.67 0.66 0.67 0.59 0.62 0.58 0.56 0.59 0.56 0.68 0.70 0.69 0.75 0.63 0.66 0.67 0.65 0.60 0.56 0.55 0.52 0.55 0.56 0.57 0.53 0.56 0.59 0.58 0.61 0.60 0.65 0.62 0.65 0.65 0.62 0.66 0.57 0.51 0.45 0.48 0.52 0.49 0.50 0.53 0.52 0.52 0.51 0.49 0.48 0.47 0.46 0.45 0.47 0.48 0.43 0.40 0.41 0.43 0.37 0.29 0.36 0.39 0.38 0.40 0.44 0.45 0.46 0.46 0.46 0.47 0.47 0.48 0.49 0.51 0.52 0.52 0.51 0.51 0.51
0.75 0.73 0.72 0.78 0.63 0.66 0.67 0.70 0.72 0.68 0.65 0.66 0.62 0.62 0.58 0.58 0.56 0.59 0.60 0.62 0.67 0.66 0.68 0.54 0.57 0.60 0.62 0.65 0.61 0.54 0.55 0.49 0.49 0.54 0.53 0.55 0.56 0.56 0.55 0.59 0.63 0.66 0.64 0.60 0.61 0.62 0.54 0.48 0.49 0.52 0.48 0.49 0.51 0.52 0.53 0.50 0.49 0.49 0.47 0.47 0.47 0.46 0.45 0.44 0.43 0.44 0.45 0.41 0.40 0.42 0.41 0.41 0.44 0.45 0.47 0.48 0.50 0.49 0.49 0.51 0.51 0.51 0.52 0.53 0.52 0.51 0.51 0.52
0.64 0.63 0.61 0.74 0.71 0.67 0.69 0.69 0.67 0.67 0.61 0.66 0.57 0.59 0.59 0.57 0.55 0.60 0.66 0.64 0.57 0.60 0.69 0.59 0.56 0.60 0.63 0.63 0.62 0.56 0.56 0.56 0.52 0.49 0.58 0.56 0.57 0.57 0.54 0.54 0.54 0.61 0.62 0.57 0.58 0.62 0.54 0.44 0.50 0.52 0.48 0.46 0.48 0.52 0.52 0.50 0.49 0.46 0.48 0.48 0.47 0.45 0.45 0.46 0.45 0.45 0.46 0.43 0.42 0.43 0.41 0.40 0.47 0.50 0.49 0.53 0.53 0.53 0.52 0.51 0.51 0.53 0.53 0.53 0.53 0.54 0.54 0.54
0.75 0.78 0.75 0.64 0.58 0.63 0.66 0.66 0.63 0.62 0.59 0.62 0.57 0.59 0.61 0.60 0.57 0.61 0.62 0.69 0.62 0.58 0.63 0.59 0.58 0.61 0.65 0.63 0.63 0.61 0.62 0.60 0.60 0.59 0.62 0.62 0.53 0.57 0.54 0.56 0.62 0.55 0.57 0.56 0.58 0.58 0.57 0.50 0.55 0.51 0.44 0.41 0.47 0.49 0.50 0.51 0.51 0.48 0.46 0.45 0.43 0.43 0.42 0.43 0.41 0.43 0.43 0.39 0.41 0.44 0.41 0.37 0.47 0.52 0.54 0.54 0.53 0.53 0.52 0.53 0.53 0.54 0.55 0.55 0.55 0.55 0.54 0.51
0.77 0.81 0.79 0.69 0.55 0.63 0.59 0.63 0.64 0.60 0.52 0.60 0.61 0.58 0.58 0.58 0.61 0.65 0.59 0.70 0.71 0.70 0.69 0.67 0.66 0.65 0.63 0.63 0.62 0.62 0.65 0.69 0.70 0.72 0.73 0.72 0.72 0.69 0.69 0.67 0.65 0.59 0.57 0.57 0.61 0.56 0.56 0.52 0.49 0.49 0.43 0.41 0.46 0.51 0.49 0.50 0.48 0.43 0.39 0.37 0.43 0.47 0.47 0.47 0.49 0.49 0.47 0.47 0.44 0.40 0.37 0.44 0.52 0.54 0.52 0.53 0.55 0.55 0.55 0.55 0.56 0.57 0.57 0.55 0.54 0.51 0.48 0.48
Wind_Speed
18 18 17 17 16 16 16 15 15 14 14 13 12 12 11 11 11 10 10 9 9 8 8 7 7 7 7 6 6 6 6 6 7 7 7 7 7 7 7 7 7 7 6 6 6 6 6 6 6 6 6 6 6 6 6 6 6 7 7 8 8 7 7 7 7 7 7 7 6 6 7 8 7 6 6 7 7 7 7 6 5 5 5 6 6 7 7 7
18 18 18 17 17 17 16 16 15 15 14 14 13 13 12 11 11 11 10 10 9 9 9 8 8 8 7 7 7 7 7 7 8 7 6 7 7 7 7 7 7 7 6 6 7 7 7 7 6 7 7 7 6 7 7 7 8 8 8 8 8 7 7 8 7 7 8 7 7 7 7 8 8 6 6 8 8 8 9 7 6 6 6 6 6 7 7 7
19 19 18 18 17 17 17 16 16 16 15 15 14 13 13 12 12 11 11 11 10 10 9 9 9 8 8 8 8 8 8 8 8 7 7 7 7 7 7 7 7 7 7 7 7 7 8 7 7 8 8 8 7 8 8 8 8 8 8 9 8 8 8 8 8 7 8 8 8 8 7 9 9 7 8 9 9 9 9 7 7 7 6 7 7 7 7 7
19 19 19 19 18 18 18 17 17 16 16 15 15 14 13 13 12 12 12 11 11 11 10 10 9 9 9 9 9 8 9 9 9 7 7 7 7 7 7 7 7 8 7 7 7 8 8 8 8 9 9 8 7 8 8 8 9 9 9 9 7 8 8 8 8 8 8 9 9 9 8 10 9 8 9 9 10 10 8 7 7 7 6 7 8 8 8 7
20 20 20 19 19 19 19 18 18 17 17 16 16 15 14 14 13 13 13 12 12 11 11 11 10 10 10 9 9 9 9 9 8 8 8 8 8 8 8 8 8 8 8 8 8 8 9 9 9 9 9 9 8 9 8 8 9 9 9 9 8 9 10 8 8 9 9 9 10 10 10 10 9 9 11 11 11 9 8 7 8 8 8 9 9 9 8 8
21 20 20 20 20 20 20 19 19 18 18 17 16 16 15 15 14 14 14 13 13 12 12 11 11 10 10 10 10 10 10 9 8 8 8 8 9 9 9 9 9 10 9 9 9 9 9 9 10 9 10 9 9 9 8 8 10 10 9 9 9 10 10 9 9 10 10 11 11 11 11 10 10 12 11 12 12 9 9 9 9 10 10 10 10 9 9 8
21 21 21 21 20 20 20 20 20 19 19 18 17 17 16 16 15 15 14 14 14 13 13 12 11 11 11 11 10 10 11 10 9 10 9 9 10 10 10 10 11 11 11 10 10 10 10 10 10 10 10 10 9 9 8 9 11 11 10 9 10 11 11 10 10 11 11 12 12 11 11 12 13 12 11 12 11 10 11 11 10 11 10 10 10 9 9 9
22 22 21 21 21 21 21 21 20 20 20 19 18 18 17 17 16 16 15 15 15 14 14 13 12 12 11 11 11 12 12 11 11 11 11 11 11 11 12 12 12 12 11 11 11 11 10 11 11 10 11 10 10 9 9 11 11 12 11 10 10 11 12 12 12 12 13 13 13 13 13 14 14 12 12 12 10 11 12 11 11 11 11 10 10 10 9 9
24 23 22 22 22 22 22 22 21 21 21 20 20 19 18 18 17 17 17 16 16 15 15 14 14 13 13 12 12 13 12 11 11 12 12 12 12 13 13 13 13 12 12 12 11 12 11 11 11 11 11 10 11 11 10 11 11 11 11 11 12 13 14 13 14 14 14 14 13 13 15 15 13 12 14 13 11 11 12 11 12 11 11 11 11 10 10 10
25 24 23 23 23 23 23 23 23 22 22 21 21 20 20 19 19 18 18 17 17 16 16 15 15 14 14 14 14 13 12 11 12 12 12 13 13 13 13 13 13 13 13 12 12 12 12 12 11 11 12 11 11 11 11 12 12 12 13 14 15 15 15 15 15 15 14 14 14 15 16 15 12 13 14 12 11 12 11 12 12 11 11 11 11 11 11 11
27 26 25 24 24 24 24 24 24 23 23 22 22 21 21 20 20 19 19 19 18 18 17 16 16 16 15 15 16 15 13 13 13 12 13 13 13 13 14 13 14 14 14 13 13 13 13 13 12 12 12 12 12 12 12 13 13 13 14 16 17 17 16 16 16 15 14 14 15 16 17 15 12 14 14 11 12 12 11 12 12 12 12 12 12 12 12 12
28 28 27 26 25 25 25 25 25 24 24 23 23 22 22 22 21 21 20 20 20 19 18 18 17 17 16 17 17 16 15 15 14 14 14 14 14 14 14 14 14 14 14 14 14 13 13 13 13 14 13 12 13 13 13 13 14 15 15 17 17 17 17 16 15 14 14 14 13 15 16 16 15 15 13 11 13 12 12 12 12 13 13 13 13 12 12 12
30 29 28 28 26 26 26 25 25 26 25 25 24 24 23 23 22 22 22 21 21 20 20 19 18 18 18 18 17 17 17 17 16 16 16 15 15 15 15 15 15 15 15 15 14 14 14 14 14 15 14 15 15 14 14 14 15 16 16 16 17 17 16 14 12 13 14 13 13 14 16 16 14 12 11 12 12 12 13 13 13 13 13 13 13 13 13 13
32 31 30 29 28 27 27 27 27 26 26 26 26 25 25 24 24 23 23 23 22 21 21 20 20 19 19 19 18 18 18 18 17 17 17 17 16 16 16 16 16 16 16 15 15 15 15 15 15 15 15 16 15 15 16 16 16 17 17 16 16 16 14 12 12 13 14 13 13 15 16 15 12 11 12 12 13 13 13 13 13 14 13 14 14 14 14 13
34 33 32 31 30 29 28 28 28 27 27 27 27 26 26 25 25 24 24 24 23 23 22 21 21 20 21 20 19 19 19 19 19 18 18 18 18 17 17 16 16 16 16 16 16 15 16 15 16 16 15 15 16 16 18 17 17 17 17 16 15 14 13 12 13 14 14 13 14 15 15 15 12 12 13 13 13 14 14 14 14 14 14 14 14 14 14 14
35 34 33 33 32 31 30 30 29 29 28 28 28 28 27 27 26 26 25 25 24 24 23 22 22 22 22 21 19 20 20 20 20 20 20 19 19 18 17 17 16 16 17 16 16 16 16 17 17 17 16 16 17 18 18 17 17 17 17 16 15 15 15 14 13 14 14 14 16 17 16 16 13 13 13 13 14 15 15 15 15 15 15 15 15 15 15 14
37 36 35 34 33 32 31 31 31 30 29 29 29 28 28 28 27 27 27 26 25 25 24 23 22 23 23 21 20 21 20 20 20 20 20 20 20 19 18 18 17 17 17 17 18 17 18 18 17 18 18 18 18 18 17 17 17 16 16 16 16 17 16 16 14 14 15 15 17 18 18 19 16 14 15 15 16 16 17 17 16 16 15 16 16 16 16 15
38 37 36 35 34 33 33 32 31 31 30 30 30 29 29 29 29 28 28 27 26 25 25 25 23 24 24 23 22 21 20 21 21 21 21 20 20 20 19 19 18 18 18 18 19 19 19 19 19 19 19 19 19 18 18 18 17 17 16 16 17 17 17 17 16 15 16 17 18 19 19 20 19 17 16 17 18 18 19 19 18 17 16 17 17 17 17 16
39 39 38 37 36 35 34 33 33 32 31 31 30 30 29 29 29 29 29 29 28 26 25 25 26 25 23 23 22 21 21 21 21 21 21 21 21 20 20 20 19 20 20 20 20 20 20 20 20 20 20 20 20 20 21 21 19 19 18 18 18 18 18 18 16 16 17 19 20 21 22 22 21 20 18 18 19 20 20 20 19 18 18 18 18 18 18 18
40 40 39 38 37 36 35 35 34 33 32 31 31 30 30 29 29 29 30 31 31 30 28 27 28 27 24 23 22 22 22 22 22 22 22 22 21 21 20 20 20 21 22 21 21 20 20 22 22 21 21 22 22 22 23 22 20 20 20 20 21 20 20 19 18 17 18 20 22 22 23 24 23 22 21 19 19 20 21 21 20 20 19 19 19 19 19 18
41 41 40 39 39 38 37 36 35 34 33 32 32 31 30 30 30 29 29 31 34 34 33 31 29 29 27 25 25 24 23 23 24 23 22 22 22 21 21 21 21 22 23 22 21 20 21 24 24 23 23 23 22 23 23 23 22 22 22 21 21 21 21 21 19 19 19 21 23 24 25 25 24 25 24 21 20 22 22 22 22 21 20 19 19 19 19 18
41 41 41 40 40 39 37 37 36 35 34 34 33 33 31 30 30 30 29 31 33 34 35 34 32 31 30 28 28 27 26 26 25 25 24 23 23 23 22 22 23 23 22 21 21 22 24 26 25 24 23 22 21 22 23 23 23 23 22 22 21 21 21 21 19 19 20 21 23 24 25 26 26 26 26 23 23 24 24 23 23 22 21 20 19 20 19 19
42 41 41 41 40 39 38 38 37 36 36 35 35 34 32 31 31 31 31 32 33 34 35 35 35 34 32 31 30 29 29 28 27 27 26 25 25 25 24 24 25 25 23 24 24 24 25 25 24 23 21 21 22 22 23 23 23 23 22 22 22 21 21 21 19 19 21 22 23 24 26 27 27 27 27 26 24 23 21 21 22 22 21 21 20 20 20 19
42 41 41 41 40 40 39 38 37 37 37 36 36 35 33 32 31 31 31 33 35 35 35 35 35 36 34 32 31 31 31 30 30 28 27 27 26 25 26 26 26 27 26 26 27 27 27 23 22 22 21 22 23 23 23 23 23 24 24 23 23 23 22 22 21 21 22 24 24 25 27 27 26 27 26 23 21 20 19 20 21 22 22 21 21 20 20 20
43 42 41 40 40 39 38 37 37 37 37 37 37 36 34 33 31 30 31 33 35 35 34 35 35 36 35 32 32 31 31 32 31 28 28 29 27 25 26 27 27 28 28 28 28 29 28 24 21 23 23 24 25 24 24 23 23 24 24 24 25 24 24 24 22 22 24 24 22 22 24 24 22 22 21 18 18 19 19 20 22 22 22 22 22 22 21 20
44 43 42 41 41 39 37 37 37 37 37 37 36 35 35 34 31 31 30 32 36 35 33 34 33 33 34 33 32 29 30 33 31 29 29 29 28 26 26 27 26 27 27 27 27 27 26 23 23 24 24 24 25 25 25 24 24 24 22 23 24 25 25 25 24 22 23 23 20 20 22 24 22 21 20 18 19 21 20 22 23 21 21 22 22 22 22 21
45 44 44 43 43 41 38 37 36 36 36 36 36 35 34 33 31 30 29 30 35 34 32 33 33 32 32 31 31 29 29 30 28 28 30 29 28 27 28 28 26 27 26 25 26 26 25 24 24 24 24 25 26 26 25 24 25 24 21 21 23 24 24 24 24 23 24 24 23 22 23 26 27 25 23 20 21 23 22 23 23 22 21 21 22 21 21 22
45 44 44 45 45 44 41 37 37 37 35 34 35 35 33 32 31 30 28 29 30 29 29 31 32 32 31 30 31 30 29 28 26 28 28 28 28 27 29 30 28 28 26 26 27 26 24 25 25 25 25 25 25 24 23 23 25 23 21 21 22 22 23 23 24 24 24 25 25 24 22 24 26 24 22 21 23 25 24 22 22 22 21 21 21 20 20 21
45 44 44 44 45 45 43 40 39 38 36 33 32 34 33 31 31 29 28 30 30 28 28 28 29 29 29 30 31 30 28 28 28 27 26 27 28 27 28 29 29 29 28 29 29 26 24 24 24 24 25 25 23 21 21 23 24 22 21 21 20 21 22 22 24 24 24 26 27 24 21 22 25 24 22 21 21 24 24 22 21 21 21 20 20 19 19 19
46 45 44 44 43 43 43 42 41 38 36 34 33 33 32 31 31 29 30 32 31 29 29 28 28 28 28 28 29 29 28 27 27 26 26 26 27 27 26 26 27 27 27 29 29 26 24 23 24 25 24 23 21 20 21 22 22 21 21 21 21 22 22 22 23 22 24 27 27 24 23 22 23 23 22 21 20 20 21 19 18 19 20 20 19 19 19 19
45 45 45 45 44 43 42 42 41 38 36 35 34 33 32 31 30 30 32 33 31 30 30 29 29 28 29 29 28 28 28 26 25 26 26 25 26 27 26 25 26 26 27 28 28 27 26 25 25 25 24 23 22 22 22 22 22 22 22 22 21 21 21 22 23 21 24 26 23 22 23 24 24 22 20 19 18 17 18 18 18 19 20 20 19 19 19 20
44 44 44 45 44 44 43 42 41 39 37 36 35 34 34 32 32 35 34 30 29 32 32 30 30 30 30 30 28 28 27 26 26 27 26 25 26 27 27 26 25 24 26 27 27 26 27 28 26 24 25 25 24 23 23 23 23 23 23 22 21 21 21 22 22 21 24 24 20 20 21 24 27 26 23 22 19 17 17 17 18 19 19 20 19 19 19 19
45 45 44 45 45 45 44 42 41 40 38 37 36 36 34 33 36 41 39 33 29 30 29 29 30 31 30 30 28 27 27 26 27 27 27 27 27 28 28 28 27 25 24 23 24 24 24 26 26 25 25 26 26 25 24 23 24 25 24 22 22 21 22 23 23 23 24 22 20 20 20 24 26 25 25 24 20 17 16 16 17 18 19 19 18 18 18 19
47 46 45 46 46 45 44 42 41 40 39 38 37 36 36 37 40 42 42 39 33 30 28 27 28 29 30 30 28 27 27 27 27 27 27 28 28 29 29 29 30 28 24 22 22 23 23 23 24 24 23 24 26 27 25 24 23 25 25 23 24 23 22 23 22 22 22 20 20 20 20 22 22 20 20 20 18 17 16 16 16 17 17 16 16 17 18 18
47 46 45 45 46 47 46 44 42 41 40 38 37 37 38 40 42 41 41 40 36 33 30 28 27 29 30 30 28 27 27 27 28 27 28 29 29 29 29 29 30 29 26 25 23 23 25 24 22 22 21 21 24 25 25 23 23 24 24 24 26 24 24 24 23 21 21 21 22 22 23 23 22 20 19 17 17 17 17 16 16 16 16 16 16 17 18 19
47 46 45 45 46 47 47 46 44 43 42 40 38 40 43 43 41 39 38 38 37 35 32 30 30 31 32 31 29 29 27 27 28 28 29 30 31 31 30 29 30 30 29 26 24 23 23 23 22 21 22 22 23 23 24 23 22 22 23 25 25 23 23 25 24 22 22 26 26 23 25 26 25 24 21 19 19 18 17 18 18 18 17 17 18 18 19 19
47 46 46 46 46 46 47 47 45 44 44 42 42 44 45 44 43 39 37 38 37 36 35 34 34 34 34 33 32 31 29 27 28 28 28 29 30 32 32 30 29 30 30 27 26 25 24 23 22 23 23 23 22 23 24 24 23 22 23 24 22 22 23 24 24 23 23 27 26 24 26 26 25 24 21 19 20 19 18 18 18 19 19 19 19 19 20 20
47 46 47 48 47 47 47 47 46 45 43 42 44 46 45 46 46 44 41 39 37 37 38 38 36 35 36 35 33 33 31 30 30 30 29 29 29 30 31 29 29 30 30 28 26 25 25 25 24 24 24 22 22 24 25 25 25 25 24 23 22 23 24 23 24 24 24 26 26 26 28 27 26 24 21 20 21 21 20 20 19 20 20 20 20 19 20 21
46 45 47 49 48 47 48 46 45 44 43 43 45 46 46 47 48 47 45 42 40 39 40 40 38 36 36 36 34 34 34 33 32 31 31 30 29 29 29 28 28 29 30 28 26 26 26 26 25 24 24 23 24 26 27 26 25 25 26 25 23 23 23 23 24 24 24 26 26 26 27 26 26 25 23 23 23 21 21 20 20 21 21 21 20 20 21 21
45 43 46 49 49 48 48 46 44 43 43 45 46 46 45 45 46 48 48 45 42 40 40 41 40 38 37 37 35 34 35 35 34 33 33 32 30 30 30 29 27 27 27 27 27 27 27 27 26 25 24 25 27 28 29 28 27 27 28 27 26 24 23 24 26 25 24 25 25 26 26 25 23 23 24 24 22 21 21 20 20 21 21 21 21 20 21 22
43 42 45 48 49 49 48 45 44 43 42 44 46 45 44 44 45 48 49 47 44 42 40 40 41 40 39 38 37 34 34 35 36 35 35 34 34 32 31 31 28 25 25 26 28 28 28 29 29 27 28 29 30 29 29 29 29 29 29 30 29 27 25 24 26 26 25 26 25 25 27 26 22 21 21 22 20 19 19 19 19 20 21 21 21 21 22 23
42 42 43 47 50 49 47 44 43 43 44 45 44 42 41 42 43 46 47 47 46 43 40 40 42 42 40 40 39 36 35 35 37 38 36 36 37 34 32 32 28 25 25 26 29 30 28 29 31 31 31 31 30 28 28 28 30 30 30 31 29 29 28 26 25 23 24 27 27 25 27 27 24 22 20 20 19 18 18 18 18 20 21 21 21 22 23 25
41 41 41 45 50 49 46 44 44 43 44 45 44 41 39 40 41 43 44 45 45 44 42 41 41 42 41 40 39 38 37 36 37 39 38 37 37 35 33 32 29 28 28 28 29 29 28 30 31 31 31 30 29 29 29 28 29 31 31 30 29 30 29 28 26 23 24 27 26 25 28 27 24 23 22 21 20 19 19 19 18 19 20 21 22 23 24 25
40 40 40 45 50 49 45 44 45 45 45 45 45 44 42 41 40 41 43 44 44 43 44 42 41 42 41 39 39 38 38 37 38 39 38 37 36 34 34 34 32 31 31 31 30 29 29 30 29 28 28 28 28 29 29 29 30 31 31 30 30 31 30 28 27 26 28 29 26 26 29 26 23 23 23 22 21 21 20 20 19 20 21 22 23 24 25 26
38 38 39 43 48 49 47 46 45 45 45 45 46 46 45 43 41 42 42 43 43 43 43 43 42 41 40 39 39 39 39 39 39 37 37 37 36 34 35 35 34 34 33 31 30 30 31 31 30 29 30 30 29 29 29 29 29 30 31 32 32 32 32 30 27 28 31 30 28 30 30 26 23 24 24 23 23 22 21 21 22 22 22 23 24 26 27 27
38 37 37 39 43 45 46 46 46 45 44 44 44 46 48 46 44 43 43 42 43 43 43 42 41 41 41 41 41 41 41 42 40 38 37 37 36 35 35 35 36 35 33 31 31 31 31 32 34 35 35 35 32 29 27 26 27 30 32 33 33 33 33 31 30 32 31 29 31 34 32 28 27 27 26 25 24 24 23 22 23 24 24 25 26 27 28 28
40 40 38 37 39 42 43 44 45 44 44 45 44 44 48 48 44 42 43 43 43 43 42 41 40 41 43 44 43 43 42 42 41 41 40 38 35 34 34 35 36 35 33 32 33 32 31 33 35 37 39 38 34 30 29 29 30 31 32 32 34 34 34 34 35 35 30 28 32 33 31 32 32 29 28 27 26 26 25 24 25 25 26 27 27 28 29 29
41 41 42 39 37 39 42 43 45 46 46 46 45 44 45 47 45 43 42 43 43 43 41 41 43 45 45 44 42 42 41 41 42 43 42 39 36 35 35 35 36 35 33 34 35 33 33 36 36 36 39 40 36 33 32 33 32 32 32 32 34 35 36 38 40 38 32 33 35 30 29 34 33 30 30 29 28 28 27 26 26 26 27 28 29 29 30 31
39 39 41 41 38 37 37 39 42 46 47 46 45 45 45 46 47 45 41 40 41 43 43 43 46 47 46 44 43 42 42 42 42 44 42 40 38 38 38 38 38 37 35 36 37 36 35 37 37 36 38 40 39 36 35 34 35 34 34 34 35 36 38 39 41 39 37 40 40 34 32 34 31 30 30 29 29 29 27 27 28 28 29 30 31 31 32 33
41 39 39 41 41 38 36 35 37 41 45 45 45 46 46 47 47 45 42 41 42 43 43 46 47 46 46 47 46 46 46 45 46 44 42 41 41 41 41 40 39 38 37 37 37 36 36 36 35 34 37 40 39 37 36 36 37 37 37 37 38 38 38 39 40 38 38 42 42 38 36 36 32 29 28 27 28 28 28 30 31 31 32 32 33 34 35 35
43 41 39 40 41 40 39 37 36 37 40 42 44 45 46 48 48 44 43 43 43 42 42 45 46 44 44 47 49 50 50 48 47 45 42 42 42 41 41 39 37 38 38 38 37 36 37 36 33 32 36 39 38 36 36 35 35 37 41 42 41 39 37 38 39 38 38 40 39 38 39 38 33 31 30 29 29 30 31 33 33 34 34 34 36 37 37 38
43 43 42 40 40 40 40 39 38 38 38 39 42 43 44 45 45 42 40 39 40 41 41 43 44 42 42 45 48 48 47 45 43 41 40 41 40 39 38 37 36 37 38 37 37 37 37 37 36 34 35 38 36 34 34 33 31 36 42 43 42 40 39 39 39 38 38 38 37 38 39 36 33 32 32 32 32 33 35 36 36 36 36 36 38 38 38 38
Wind_Direction
205 205 204 204 203 203 203 203 202 202 203 203 204 205 206 207 208 209 210 212 214 216 220 224 229 232 236 241 245 250 255 254 248 246 244 242 242 239 236 233 230 228 230 238 243 247 249 248 255 258 255 256 264 268 269 276 274 269 268 266 269 267 267 270 262 264 267 262 261 260 265 267 259 254 261 266 259 261 271 268 275 282 287 292 290 295 298 299
206 207 206 206 206 206 206 206 206 206 207 207 209 210 211 212 212 213 213 215 218 221 225 229 234 237 241 245 248 254 256 254 247 242 244 244 239 235 233 229 226 228 235 244 246 251 254 254 259 260 258 259 266 269 267 274 275 272 272 268 272 275 272 274 271 270 270 267 265 265 270 267 267 267 264 267 258 259 272 264 257 269 278 287 289 293 296 298
209 209 209 209 209 209 209 209 210 210 211 212 213 214 214 215 215 216 218 220 223 226 229 233 237 241 245 248 252 256 257 254 243 235 240 240 234 231 227 226 228 232 239 249 252 254 259 260 262 263 263 263 268 269 267 273 274 272 273 271 274 275 272 272 271 274 276 275 269 265 268 266 267 270 264 267 268 266 270 268 261 263 270 282 288 290 292 292
212 212 212 212 212 213 213 213 213 214 215 216 216 216 216 217 218 220 222 224 227 229 232 236 240 244 247 251 255 257 258 254 240 234 239 236 231 229 227 230 234 238 246 253 256 257 259 261 263 266 265 264 266 267 268 275 275 272 273 276 276 271 270 268 270 274 275 276 273 269 267 266 265 264 264 267 271 266 265 277 278 273 276 280 284 286 286 287
216 216 216 216 217 217 217 217 217 218 218 218 218 218 218 220 222 224 226 228 230 233 236 239 242 246 249 252 255 255 256 251 237 235 238 235 233 231 233 238 241 247 251 255 258 260 260 261 263 264 264 265 265 266 269 275 276 272 272 277 273 272 272 266 270 273 271 274 272 269 266 267 266 262 262 263 268 267 267 278 280 278 281 280 280 280 281 284
218 219 219 220 220 220 220 220 220 220 220 219 220 220 221 223 225 227 229 231 233 236 238 241 244 247 250 253 252 251 251 247 237 237 239 238 239 237 241 244 247 252 254 256 258 260 260 261 261 262 265 267 267 269 271 272 274 274 270 269 270 274 274 268 268 270 270 271 268 268 269 269 267 264 262 261 266 268 268 272 273 276 278 276 274 274 277 279
220 221 222 222 222 222 222 222 221 221 221 221 222 223 225 226 228 230 232 234 236 238 240 243 245 248 252 252 249 246 246 246 241 241 242 244 245 243 246 247 250 254 254 256 256 259 260 260 261 263 265 266 266 268 271 271 270 274 272 266 270 273 273 270 269 269 270 270 269 272 272 268 264 264 265 263 263 264 266 269 271 274 273 270 269 270 273 275
222 223 223 223 223 223 223 223 223 223 223 224 225 226 228 229 231 232 234 236 237 239 241 244 246 249 251 249 248 248 245 245 244 244 246 247 247 247 249 250 252 255 255 255 256 259 259 258 261 262 263 265 268 267 271 274 268 271 275 270 271 272 270 270 268 268 268 269 271 270 268 265 263 266 269 264 259 260 264 267 268 269 268 266 266 268 269 272
224 224 225 225 225 224 224 224 224 225 225 226 227 229 230 232 233 235 236 238 239 241 243 244 247 249 249 247 249 251 248 246 247 248 247 248 248 248 250 252 253 254 254 255 257 257 257 259 260 261 267 268 269 270 271 274 272 274 278 275 272 271 270 269 268 267 265 266 266 265 265 264 264 268 269 262 256 259 261 263 265 264 263 263 264 266 268 270
226 226 226 227 227 226 226 226 226 227 227 228 230 231 233 234 236 237 238 239 240 242 244 245 247 248 248 246 248 251 248 247 250 250 249 249 249 248 251 253 254 253 254 255 255 255 256 260 260 261 268 268 267 271 271 273 276 278 279 277 273 272 271 268 268 267 264 264 261 261 267 266 262 265 266 261 256 258 258 259 261 260 260 261 262 264 267 270
227 227 228 228 228 228 228 227 228 228 229 230 232 233 235 236 238 239 240 241 242 243 245 246 247 247 247 247 248 250 249 249 252 251 251 251 250 250 252 254 254 254 255 255 254 254 257 259 259 260 266 267 266 268 271 274 277 277 279 278 273 270 269 265 265 265 264 264 259 260 267 266 261 263 264 259 255 255 255 256 256 257 258 259 260 262 265 269
228 228 229 229 230 230 230 230 230 230 231 232 234 235 237 238 239 240 241 242 243 244 245 246 247 246 247 248 248 250 250 251 252 252 252 252 251 252 253 254 255 255 256 256 254 254 257 257 255 260 267 270 269 270 272 273 276 277 277 279 277 273 269 263 263 264 263 265 261 261 268 264 257 260 262 256 255 254 254 256 254 256 257 257 258 259 263 267
229 229 229 230 231 231 231 231 232 232 233 234 235 237 238 239 240 241 242 243 244 245 245 246 247 246 248 249 247 249 251 252 252 252 253 252 252 253 254 254 255 255 256 256 254 253 255 256 257 262 268 271 272 273 274 272 275 277 274 276 279 277 270 263 265 265 261 264 261 260 270 268 257 256 259 253 251 251 252 255 255 256 256 256 257 259 262 267
229 230 229 230 231 232 233 233 233 234 234 235 237 238 239 240 241 242 243 243 244 245 246 246 247 247 248 249 248 250 252 252 252 252 252 252 252 254 254 255 255 255 255 254 253 253 254 256 260 263 267 271 273 273 273 271 271 275 275 274 275 275 270 261 262 262 261 265 261 260 270 272 261 256 258 253 249 249 252 254 254 256 256 257 258 259 263 267
230 231 230 230 232 233 234 234 234 235 236 237 238 239 240 241 242 242 243 243 244 244 246 246 246 247 249 249 249 252 252 252 252 252 252 253 252 253 253 254 255 254 253 253 252 253 256 257 260 263 266 270 271 272 273 272 271 272 274 272 269 270 268 260 260 264 267 266 259 261 269 270 262 256 257 254 250 252 255 255 255 256 256 257 259 260 263 266
231 231 231 231 232 234 235 235 235 235 237 239 239 240 240 241 242 242 243 243 244 244 245 246 245 247 252 251 249 251 252 251 251 252 252 253 254 253 252 252 253 252 252 253 253 254 257 259 263 266 267 268 268 271 273 273 271 268 269 271 269 268 268 265 264 266 269 265 258 259 267 272 266 257 255 253 251 254 257 257 256 256 256 257 259 260 262 263
231 232 232 232 233 234 235 235 235 236 238 239 240 240 241 241 242 242 243 242 243 243 244 246 246 248 251 250 249 251 251 251 251 252 252 252 254 252 250 251 251 251 251 253 254 255 257 260 263 266 265 266 268 269 270 269 269 266 265 269 269 267 267 267 266 266 265 265 263 260 264 269 266 256 254 254 253 255 258 258 257 257 258 258 259 260 261 261
231 232 232 233 233 235 235 235 235 236 238 239 240 240 241 242 242 242 242 241 242 243 245 245 245 249 250 247 248 250 250 252 251 252 252 252 253 251 251 252 251 250 250 253 255 255 258 260 262 265 264 264 264 263 263 265 271 271 267 270 271 266 265 267 268 266 264 265 266 265 265 267 266 259 255 254 254 255 258 259 259 258 257 258 259 259 260 261
232 232 232 233 234 235 235 235 236 236 238 239 239 240 241 242 242 243 242 241 240 241 245 244 241 247 250 246 247 249 251 252 251 252 251 251 251 250 251 252 250 250 252 255 255 254 258 260 260 263 263 262 261 260 262 265 271 273 271 272 272 269 267 268 268 267 269 269 268 267 267 268 268 264 258 254 254 256 258 260 260 259 258 258 259 259 260 261
232 232 233 233 234 235 235 235 236 237 237 238 239 239 240 241 242 243 241 241 241 242 247 245 241 246 250 248 247 249 250 251 253 252 250 250 249 249 250 251 251 252 254 255 255 256 258 259 260 261 262 263 261 260 262 267 269 271 272 271 269 268 268 269 267 268 271 271 270 269 269 269 269 268 264 257 255 257 257 258 259 258 257 257 257 258 258 259
232 233 233 233 233 235 235 236 236 237 237 238 238 238 241 242 243 244 243 243 244 244 247 247 245 248 249 249 247 247 250 252 253 251 250 250 247 248 249 249 252 254 254 255 258 259 259 259 260 260 262 264 264 262 263 266 268 269 269 269 268 266 268 269 267 268 270 271 271 271 270 270 269 270 268 260 256 259 256 256 258 256 255 256 255 255 256 258
232 233 233 233 233 234 235 236 236 237 237 237 237 238 242 244 244 246 248 248 246 244 246 246 247 248 248 249 248 249 251 251 251 249 249 248 246 249 250 248 253 255 253 253 258 259 258 259 260 260 263 264 264 265 264 265 266 266 267 267 266 267 269 269 266 268 270 271 273 273 272 271 269 270 269 261 257 260 258 258 259 256 253 254 254 253 254 255
233 233 233 234 234 234 235 235 236 237 237 237 238 239 242 244 245 247 249 251 250 245 244 245 246 247 246 247 248 249 249 250 250 248 245 245 246 250 251 249 253 255 252 252 255 258 259 261 260 258 260 262 263 263 262 263 264 264 264 264 265 266 268 269 268 269 269 270 274 276 275 272 271 270 268 263 262 264 263 262 262 259 255 254 253 253 252 252
233 233 234 234 234 234 234 235 236 237 237 238 239 239 241 244 246 249 250 252 252 247 244 245 246 246 245 247 247 246 248 250 251 248 243 244 246 250 252 251 253 255 254 252 253 256 260 263 261 257 258 259 261 260 259 262 264 262 261 262 264 266 266 268 271 272 270 270 272 275 277 274 270 268 266 266 269 268 265 263 261 259 257 255 253 251 250 250
233 233 234 233 233 234 234 236 237 237 238 238 240 240 241 243 245 249 250 252 252 248 245 246 247 247 245 246 246 245 249 251 250 249 243 243 246 250 253 253 254 255 254 252 254 258 259 260 259 257 258 259 259 260 258 260 264 264 260 259 263 267 267 269 272 275 275 273 270 271 276 275 271 267 264 264 266 264 261 260 259 257 255 253 251 250 248 247
233 233 233 232 232 232 233 237 238 237 238 239 240 240 240 242 245 247 249 252 254 249 245 244 245 246 245 244 243 246 252 252 250 249 245 245 248 250 254 253 254 256 255 254 256 259 258 258 259 258 258 258 259 261 259 258 263 265 263 260 262 266 268 268 271 272 274 276 273 268 272 276 274 269 265 262 261 260 260 261 259 255 253 251 249 247 245 243
233 233 233 232 231 230 233 238 237 236 238 240 240 238 239 240 242 245 247 253 255 248 244 244 244 245 245 243 239 243 252 251 249 248 246 247 248 249 253 251 252 255 256 255 256 258 256 255 258 257 258 258 258 261 259 257 260 263 266 266 263 265 267 268 270 270 271 275 272 266 269 276 275 270 266 260 260 262 260 260 257 253 251 248 246 244 242 241
232 232 233 233 231 231 233 238 236 235 238 241 238 236 237 237 239 242 244 249 251 247 245 245 244 245 245 242 239 242 250 250 249 249 246 246 247 248 250 249 251 252 250 251 254 258 258 254 254 254 256 257 258 261 258 254 258 263 266 268 266 267 269 270 270 270 272 273 270 265 266 272 275 272 265 259 262 265 262 258 253 249 247 245 242 241 239 239
232 232 233 232 231 232 233 237 237 235 237 238 236 234 233 234 237 240 243 246 248 248 249 245 243 243 241 241 242 245 250 252 253 251 246 246 246 249 251 250 252 251 247 249 253 259 260 258 258 255 255 257 258 263 261 256 259 262 262 265 266 268 270 270 269 270 271 269 268 265 261 268 276 274 263 260 266 268 265 261 252 246 243 241 239 237 237 237
233 233 232 231 231 231 232 235 236 235 235 234 233 231 229 233 236 236 239 244 246 248 249 246 244 242 237 238 244 246 247 251 252 248 245 246 246 249 252 251 252 251 249 251 254 256 257 259 260 257 257 259 258 262 265 262 260 258 259 263 265 267 268 268 267 269 270 268 268 264 256 261 274 274 263 262 269 271 268 263 254 246 240 238 238 236 236 237
233 233 231 231 231 231 231 233 234 233 232 232 231 228 228 234 236 235 239 245 248 248 247 246 245 241 236 238 243 244 245 247 245 242 244 246 244 245 247 247 249 250 251 253 254 255 254 255 257 257 258 258 257 259 262 262 259 257 259 261 264 266 267 267 265 264 268 270 272 268 256 254 264 269 267 268 272 274 269 261 251 244 239 238 239 238 237 238
232 232 231 230 231 231 232 233 232 231 231 230 228 227 229 232 234 236 239 244 247 245 243 243 243 241 238 240 243 242 242 244 242 240 243 242 242 243 243 244 244 246 252 252 252 255 255 253 253 256 257 255 254 256 258 259 257 255 256 256 260 265 266 266 264 264 267 270 275 272 262 257 261 265 268 270 271 270 269 263 251 242 238 237 237 237 238 238
231 231 231 230 230 231 232 233 230 229 230 228 227 229 231 231 234 236 236 239 244 246 244 243 241 240 239 240 243 240 241 244 240 240 242 240 242 243 243 244 242 245 255 253 250 253 256 256 252 253 256 252 250 252 253 255 253 251 251 250 254 261 265 266 267 268 268 269 271 269 265 266 268 268 268 269 270 268 266 264 255 243 238 237 235 235 237 236
232 232 232 231 230 231 231 231 229 228 227 225 226 230 230 233 237 237 236 237 242 246 246 243 239 239 239 242 243 239 241 244 239 239 242 239 242 244 242 243 242 245 252 252 251 250 253 259 251 249 254 248 245 250 253 254 252 251 252 251 253 257 263 268 270 270 271 272 270 264 263 267 270 273 274 272 270 266 262 260 256 247 239 237 235 234 235 235
232 233 233 232 231 230 230 229 229 227 225 224 227 229 229 233 238 238 237 237 239 242 243 241 238 239 241 244 244 240 243 245 239 239 242 240 243 244 243 244 242 243 246 249 254 251 253 260 253 252 256 245 243 250 250 251 254 254 253 252 255 258 262 268 271 271 274 277 269 261 264 268 270 272 273 271 268 262 258 255 251 245 239 236 237 236 235 236
233 233 233 232 231 230 229 229 228 226 225 226 228 229 231 235 239 239 238 236 237 237 237 239 241 241 242 243 243 240 243 245 239 240 243 243 245 246 245 245 241 241 243 246 251 252 254 259 254 254 256 249 250 251 247 250 255 254 252 252 257 262 262 265 269 270 271 274 270 262 265 269 270 269 266 265 266 259 253 251 246 243 240 237 238 237 236 237
232 233 233 232 231 229 228 228 227 226 227 229 229 231 235 238 239 239 239 236 235 234 235 240 242 241 242 243 242 239 241 243 239 241 243 242 246 246 244 245 241 240 243 245 250 252 254 259 256 253 254 254 259 257 251 254 255 253 254 255 259 264 262 262 267 269 267 269 270 264 264 266 265 268 266 262 262 256 250 248 245 243 241 238 239 239 237 237
231 232 233 232 230 228 226 227 227 226 229 232 231 233 238 239 238 238 238 236 234 234 237 241 241 241 241 242 242 238 238 241 239 240 242 242 247 244 240 244 243 239 241 244 250 252 252 256 257 256 256 255 256 254 251 254 255 257 260 258 257 260 258 256 261 267 266 267 271 268 265 265 262 264 265 259 256 253 249 247 245 244 240 239 241 241 238 238
232 233 235 232 228 226 225 225 226 227 229 230 231 234 238 239 237 237 237 236 236 236 238 240 240 242 242 241 242 238 237 240 239 240 243 243 246 243 237 242 244 241 239 241 248 251 250 253 258 260 259 254 251 251 249 251 253 256 258 257 256 259 260 256 256 263 266 267 272 272 269 268 264 260 259 257 255 251 247 247 247 244 241 242 243 241 240 241
232 235 237 231 226 225 224 225 226 227 230 231 232 237 239 239 237 235 235 236 237 238 240 240 239 240 242 241 241 239 239 241 241 242 244 243 244 244 240 241 244 243 240 240 247 250 249 251 256 260 258 252 250 250 250 251 250 250 251 252 253 255 259 262 260 259 263 266 270 272 271 271 269 263 258 256 254 250 247 248 248 246 243 245 245 243 242 244
231 236 237 228 224 222 221 224 227 228 230 232 235 239 240 239 237 235 234 235 238 240 242 241 239 240 241 240 240 241 240 242 242 244 245 243 243 245 242 242 244 244 243 243 246 248 249 251 254 255 254 252 253 255 256 255 252 251 251 250 251 251 252 259 262 258 258 263 267 270 272 272 271 271 268 262 260 258 254 250 250 249 247 246 247 246 246 247
231 235 234 226 221 219 219 226 229 227 229 232 235 240 239 237 237 235 233 234 237 240 242 242 240 239 240 240 241 241 241 243 243 243 246 245 244 246 243 241 241 240 243 247 248 249 252 254 253 254 255 255 257 259 258 259 257 255 254 252 252 252 249 252 260 260 257 258 261 267 271 271 270 272 273 269 268 269 265 257 252 250 249 248 249 249 249 251
231 234 232 224 219 217 220 227 228 227 230 232 236 239 237 236 237 235 234 234 236 239 240 241 240 238 239 240 240 240 241 243 243 243 246 247 246 247 243 240 240 242 246 250 251 252 254 253 253 255 257 257 257 257 257 258 257 255 255 254 252 251 249 250 257 262 260 258 258 262 266 268 270 271 270 269 268 268 267 262 254 251 251 251 251 251 253 255
231 231 229 223 218 217 222 227 227 227 231 232 234 236 237 238 237 236 235 235 236 237 238 239 239 238 239 240 240 240 240 242 244 243 245 247 247 248 243 239 240 245 248 251 251 250 251 251 250 253 255 255 254 254 253 253 254 254 255 253 251 250 249 251 256 259 261 258 254 258 263 267 270 269 267 268 267 264 263 262 258 255 254 254 255 256 257 257
228 228 229 225 219 219 225 229 228 229 230 230 231 234 236 238 238 237 237 237 237 237 237 239 239 239 240 240 242 242 240 242 244 244 245 247 248 250 247 241 241 246 251 254 252 250 252 250 245 246 250 251 252 254 253 252 253 254 253 250 249 247 245 249 252 253 258 258 253 255 262 267 269 266 266 267 265 263 260 259 260 261 260 259 259 259 259 259
225 226 227 226 224 226 230 231 230 230 230 229 232 233 234 237 239 237 236 237 237 237 239 240 240 240 240 240 241 243 241 242 244 245 246 246 247 250 249 246 244 247 251 253 251 251 255 252 245 244 247 249 253 257 256 253 251 251 250 248 247 245 244 247 251 251 256 260 258 256 259 264 265 263 265 265 262 261 259 258 260 262 262 262 261 260 260 261
226 227 226 226 228 230 232 231 229 230 230 229 232 234 233 235 237 236 235 236 236 236 238 240 239 238 238 238 240 242 242 242 243 244 245 246 248 250 250 250 249 249 252 254 252 251 254 252 247 247 248 250 254 256 254 252 252 250 250 248 246 245 243 244 248 251 253 258 261 259 256 258 261 260 262 263 260 261 261 260 260 261 260 261 262 262 262 263
227 228 226 227 230 230 231 231 229 229 230 229 232 234 232 232 234 234 235 237 237 236 238 239 237 237 237 237 239 241 241 241 242 243 244 245 247 249 250 251 252 252 253 254 253 251 252 252 250 248 250 252 252 253 253 253 255 254 251 249 246 245 243 243 247 251 250 252 259 261 255 257 260 259 259 261 261 262 264 263 263 262 261 263 264 264 264 265
226 228 227 227 229 230 231 232 231 230 230 230 232 233 232 231 232 233 235 237 237 237 237 238 238 237 237 237 238 239 239 239 241 243 244 245 246 248 249 252 253 253 253 253 253 252 251 251 250 248 251 253 251 251 252 253 255 255 254 252 248 245 245 245 248 251 250 252 257 260 260 262 263 260 258 260 263 265 266 265 264 263 264 266 267 267 267 268
225 228 228 228 230 231 232 233 233 233 232 230 232 232 232 232 232 234 236 235 236 237 236 238 240 239 238 239 240 241 241 241 243 245 245 246 248 249 250 252 253 252 251 250 252 252 249 249 250 248 251 253 251 250 251 251 253 255 255 254 251 249 247 247 250 252 251 254 257 259 261 263 262 262 263 264 264 265 265 264 264 266 268 270 271 271 270 271
225 228 229 229 231 231 232 233 233 234 233 231 232 232 232 233 235 237 238 237 237 238 237 238 241 241 242 241 241 243 244 244 247 249 248 247 249 251 252 253 251 248 248 248 249 248 246 247 250 248 250 253 251 249 250 253 255 256 255 254 251 250 250 249 252 252 251 254 256 256 259 262 262 263 267 266 264 264 264 266 267 269 271 272 271 271 270 271
226 228 229 230 233 232 232 234 233 234 235 234 234 234 234 235 237 237 238 239 239 239 239 240 242 243 242 242 242 243 245 247 248 250 249 248 250 252 251 251 248 246 246 247 247 246 244 245 248 247 250 254 254 250 251 254 256 255 256 255 251 250 252 252 253 253 252 254 256 256 260 263 263 263 264 264 265 265 266 267 268 270 271 271 270 269 269 270